Location: �perlecques
(50.8057°N, 2.1521°E)
Time: 08:01:36
(UTC+00:00)

STARS - Pass Details

Date: 09 April 2023
Orbit: 616 x 630 km, 98.1° (Epoch: 03 June)

Event Time Altitude Azimuth Distance (km) Brightness Sun altitude
Rises 23:07:39 0° 16° (NNE) 2,924 ? -30.6°
Reaches altitude 10° 23:09:52 10° 19° (NNE) 2,014 ? -30.7°
Enters shadow 23:12:06 29° 26° (NNE) 1,149 ? -30.8°
